Location: Grieser Field
(39.7333°N, 81.7975°W)
Time: 05:10:57
(UTC-04:00)

Meteor 2-1 Rocket - Visible Passes

Search period start: 02 September 2014 00:00
Search period end: 12 September 2014 00:00
Orbit: 831 x 906 km, 81.3° (Epoch: 01 September)

Date Brightness Start Highest point End Pass type
(mag) Time Alt. Az. Time Alt. Az. Time Alt. Az.
02 Sep 6.4 01:02:18 23° NNW 01:02:18 23° NNW 01:04:36 10° N visible
02 Sep 6.6 23:13:22 14° NE 23:13:22 14° NE 23:14:13 10° NNE visible
03 Sep 6.4 00:55:45 22° NNW 00:55:45 22° NNW 00:58:01 10° N visible
03 Sep 6.5 23:06:48 14° NE 23:06:48 14° NE 23:07:42 10° NNE visible
04 Sep 6.4 00:49:11 22° NNW 00:49:11 22° NNW 00:51:27 10° N visible
04 Sep 6.5 23:00:13 14° NE 23:00:13 14° NE 23:01:10 10° NNE visible
05 Sep 6.4 00:42:36 22° NNW 00:42:36 22° NNW 00:44:53 10° N visible
05 Sep 6.5 22:53:38 14° NE 22:53:38 14° NE 22:54:39 10° NNE visible
06 Sep 6.4 00:36:01 22° NNW 00:36:01 22° NNW 00:38:18 10° N visible
06 Sep 6.4 22:47:01 15° NE 22:47:01 15° NE 22:48:07 10° NNE visible
07 Sep 6.4 00:29:24 22° NNW 00:29:24 22° NNW 00:31:44 10° N visible
07 Sep 6.4 22:40:24 15° NE 22:40:24 15° NE 22:41:36 10° NNE visible
08 Sep 6.4 00:22:47 22° NNW 00:22:47 22° NNW 00:25:09 10° N visible
08 Sep 6.3 22:33:45 16° NE 22:33:45 16° NE 22:35:04 10° NNE visible
09 Sep 6.4 00:16:08 23° NNW 00:16:08 23° NNW 00:18:35 10° N visible
09 Sep 6.2 22:27:05 17° NE 22:27:05 17° NE 22:28:33 10° NNE visible
10 Sep 6.4 00:09:28 23° NNW 00:09:28 23° NNW 00:12:00 10° N visible
10 Sep 6.2 22:20:24 18° NE 22:20:24 18° NE 22:22:01 10° NNE visible
11 Sep 6.3 00:02:46 23° NNW 00:02:46 23° NNW 00:05:25 10° N visible
11 Sep 6.1 22:13:41 19° NE 22:13:41 19° NE 22:15:29 10° NNE visible
11 Sep 6.3 23:56:03 24° NNW 23:56:03 24° NNW 23:58:50 10° N visible
